This is the latest recevied weather packets stored in our database for station/object N0NB. If no packets are shown the sender has not sent any weather packets the latest 10 day(s).
| Time | Temp. | Humidity | Pressure | Rain* | Wind** | Luminosity | Snow |
|---|---|---|---|---|---|---|---|
| 1777581317 | 16.11° C | 41% | 1016.8 hPa | 0 mm | - | 470 W/m² | - |
| 1777580717 | 16.11° C | 42% | 1016.9 hPa | 0 mm | - | 414 W/m² | - |
| 1777580117 | 16.11° C | 40% | 1017.1 hPa | 0 mm | - | 499 W/m² | - |
| 1777579517 | 16.11° C | 42% | 1017 hPa | 0 mm | - | 518 W/m² | - |
| 1777578917 | 16.11° C | 43% | 1016.9 hPa | 0 mm | - | 460 W/m² | - |
| 1777578317 | 16.11° C | 42% | 1017 hPa | 0 mm | - | 572 W/m² | - |
| 1777577717 | 16.11° C | 45% | 1017.1 hPa | 0 mm | - | 858 W/m² | - |
| 1777577117 | 16.11° C | 45% | 1017.1 hPa | 0 mm | - | 461 W/m² | - |
| 1777576517 | 16.11° C | 47% | 1017.1 hPa | 0 mm | - | 678 W/m² | - |
| 1777575917 | 16.11° C | 45% | 1017.1 hPa | 0 mm | - | 731 W/m² | - |
| 1777575317 | 16.67° C | 46% | 1017.2 hPa | 0 mm | - | 815 W/m² | - |
| 1777574717 | 16.67° C | 48% | 1017.2 hPa | 0 mm | - | 866 W/m² | - |
| 1777574117 | 16.67° C | 49% | 1017.1 hPa | 0 mm | - | 894 W/m² | - |
| 1777573516 | 16.67° C | 48% | 1017.2 hPa | 0 mm | - | 913 W/m² | - |
| 1777572916 | 16.11° C | 51% | 1017.2 hPa | 0 mm | - | 880 W/m² | - |
| 1777572317 | 16.11° C | 49% | 1017.4 hPa | 0 mm | - | 811 W/m² | - |
| 1777571717 | 15.56° C | 52% | 1017.5 hPa | 0 mm | - | 917 W/m² | - |
| 1777571117 | 16.11° C | 51% | 1017.6 hPa | 0 mm | - | 841 W/m² | - |
| 1777570517 | 16.11° C | 57% | 1017.7 hPa | 0 mm | - | 859 W/m² | - |
| 1777569916 | 16.11° C | 55% | 1017.7 hPa | 0 mm | - | 872 W/m² | - |
| 1777569317 | 16.11° C | 55% | 1017.8 hPa | 0 mm | - | 834 W/m² | - |
| 1777568716 | 15.56° C | 52% | 1017.7 hPa | 0 mm | - | 802 W/m² | - |
| 1777568116 | 16.11° C | 51% | 1017.7 hPa | 0 mm | - | 701 W/m² | - |
| 1777567516 | 16.11° C | 53% | 1017.7 hPa | 0 mm | - | 702 W/m² | - |
| 1777566916 | 16.11° C | 54% | 1017.8 hPa | 0 mm | - | 699 W/m² | - |
* Rain latest hour (hover to see other rain measurements)
** Current wind speed in m/s (hover to see current wind gust speed)